sat.trackr.live / text

‹ back to catalog

STARLINK-35966

NORAD 66821 · 2025-280A

PAYLOAD ACTIVE UNKNOWN

§ Identity

Operator
Country
US
Launch date
2025-12-02
Launch site
AFWTR
Launch vehicle
Mass (kg)
RCS (m²)

Purposes: comms

External: N2YO · Heavens-Above · Gunter

§ Orbital elements

Epoch: 2026-09-20T05:52:19.068960Z

Period
96.11 min
Inclination
69.9997°
Eccentricity
0.0003254
Mean motion
14.98336885 rev/d
Perigee alt
569.8 km
Apogee alt
574.3 km
Semi-major
6,950.2 km
B*
3.9741e-4
RAAN
204.1033°
Arg perigee
268.4340°
Mean anomaly
91.6446°
Rev number
4,521

§ Raw data

STARLINK-359661 66821U 25280A   26263.24466515  .00004653  00000+0  39741-3 0  99962 66821  69.9997 204.1033 0003254 268.4340  91.6446 14.98336885 45215

JSON: /api/v1/satellites/66821 · /tle

For live sub-satellite position, see the globe view (requires WebGL).

§ Visibility from observer

Set your observer location to see the next 7 days of passes ≥ 10°. The values pass through the URL so the page stays shareable.

No JS? Fill the form by hand. The geolocation button needs JavaScript.